Tracking 35055 objects as of 18-Aug-2026
HD Live streaming from Space Station
objects crossing your sky now

ONEWEB-0347

Track ONEWEB-0347 now!
10-day predictions
ONEWEB-0347 is classified as:


NORAD ID: 49280
Int'l Code: 2021-090B
Launch date: October 14, 2021
Source: United Kingdom (UK)
Launch site: VOSTOCHNY COSMODROME (VOSTO)
Your satellite tracking list
Your tracking list is empty




NASA's NSSDC Master Catalog

Two Line Element Set (TLE):
1 49280U 21090B   26230.08928414  .00000058  00000-0  11190-3 0  9992
2 49280  87.9145 262.0991 0002257  96.2778 263.8613 13.20772580239214
Source of the keplerian elements: AFSPC